Location: Monrovia
(34.7865°N, 86.7139°W)
Time: 00:36:03
(UTC+00:00)

Terra - Pass Details

Date: 14 July 2020
Orbit: 702 x 703 km, 98.2° (Epoch: 12 August)

Event Time Altitude Azimuth Distance (km) Brightness Sun altitude
Exits shadow 03:56:57 74° 332° (NNW) 735 1.9 -27.3°
Drops below altitude 10° 04:01:17 10° 347° (NNW) 2,175 5.2 -27.7°
Sets 04:03:33 0° 347° (NNW) 3,097 6.3 -27.9°
